Moffett NAS, CA

7:39 PM PDT on June 19, 2018 (GMT -0700)
Moffett Federal Air Field

Weather History for KNUQ - April, 2008

Change the Weather History Date:

Wednesday, April 16, 2008

  Actual Average Record
Temperature  
Mean Temperature 58 °F 59 °F  
Max Temperature 72 °F 69 °F 86 °F (1987)
Min Temperature 44 °F 49 °F 36 °F (1955)
Degree Days  
Heating Degree Days 7    
Month to date heating degree days  
Since 1 July heating degree days  
Cooling Degree Days 0    
Month to date cooling degree days  
Year to date cooling degree days  
Growing Degree Days 8 (Base 50)    
Moisture  
Dew Point 38 °F    
Average Humidity 50    
Maximum Humidity 72    
Minimum Humidity 27    
Precipitation  
Precipitation 0.00 in 0.03 in 0.34 in (2006)
Month to date precipitation 0.57  
Year to date precipitation 8.65  
Sea Level Pressure  
Sea Level Pressure 30.14 in    
Wind  
Wind Speed 3 mph (NNW)    
Max Wind Speed 15 mph    
Max Gust Speed 21 mph    
Visibility 10 miles    
Events      
T = Trace of Precipitation, MM = Missing Value Source: NWS Daily Summary

Daily Weather History Graph

Daily Weather History Graph

Search for Another Location

Airport or City:

Astronomy

Apr. 16, 2008 Rise Set
Actual Time 6:31 AM PDT 7:44 PM PDT
Civil Twilight 6:04 AM PDT 8:12 PM PDT
Nautical Twilight 5:32 AM PDT 8:44 PM PDT
Astronomical Twilight 4:58 AM PDT 9:18 PM PDT
Moon 4:31 PM PDT (4/16) 4:36 AM PDT (4/16)
Length of Visible Light 14h 07m
Length of Day
13h 13m
Waxing Gibbous, 88% of the Moon is Illuminated
Apr 16
Waxing Gibbous
Apr 20
Full
Apr 28
Last Quarter
May 5
New
May 11
First Quarter

Hourly Weather History & Observations

Time (PDT) Temp. Dew Point Humidity Pressure Visibility Wind Dir Wind Speed Gust Speed Precip Events Conditions
12:56 AM 48.0 °F 35.1 °F 61% 30.19 in 10.0 mi Calm Calm - N/A   Clear
1:56 AM 48.0 °F 34.0 °F 58% 30.18 in 10.0 mi Calm Calm - N/A   Clear
2:56 AM 46.0 °F 33.1 °F 61% 30.17 in 10.0 mi Calm Calm - N/A   Clear
3:56 AM 45.0 °F 33.1 °F 63% 30.16 in 10.0 mi Calm Calm - N/A   Clear
4:56 AM 45.0 °F 33.1 °F 63% 30.16 in 10.0 mi Calm Calm - N/A   Clear
5:56 AM 45.0 °F 34.0 °F 65% 30.15 in 10.0 mi Calm Calm - N/A   Clear
6:56 AM 44.1 °F 34.0 °F 68% 30.16 in 10.0 mi Calm Calm - N/A   Clear
7:56 AM 48.9 °F 35.1 °F 59% 30.17 in 10.0 mi Calm Calm - N/A   Clear
8:56 AM 53.1 °F 37.0 °F 55% 30.17 in 10.0 mi North 3.5 mph - N/A   Clear
9:56 AM 57.9 °F 35.1 °F 42% 30.17 in 10.0 mi North 5.8 mph - N/A   Clear
10:56 AM 61.0 °F 35.1 °F 38% 30.17 in 10.0 mi NW 8.1 mph - N/A   Clear
11:56 AM 66.0 °F 33.1 °F 29% 30.17 in 10.0 mi NNW 8.1 mph - N/A   Clear
12:56 PM 66.9 °F 33.1 °F 28% 30.15 in 10.0 mi NW 6.9 mph 20.7 mph N/A   Clear
1:56 PM 69.1 °F 34.0 °F 27% 30.14 in 10.0 mi North 12.7 mph - 0.00 in   Clear
2:56 PM 71.1 °F 37.0 °F 29% 30.11 in 10.0 mi North 12.7 mph - N/A   Clear
3:56 PM 72.0 °F 37.9 °F 29% 30.09 in 10.0 mi North 13.8 mph - N/A   Clear
4:56 PM 71.1 °F 39.0 °F 31% 30.08 in 10.0 mi North 15.0 mph - N/A   Clear
5:56 PM 69.1 °F 42.1 °F 38% 30.09 in 10.0 mi North 15.0 mph - N/A   Clear
6:56 PM 64.0 °F 42.1 °F 45% 30.09 in 10.0 mi North 12.7 mph - N/A   Clear
7:56 PM 61.0 °F 44.1 °F 54% 30.09 in 10.0 mi North 8.1 mph - N/A   Clear
8:56 PM 59.0 °F 46.0 °F 62% 30.10 in 10.0 mi NNW 6.9 mph - N/A   Clear
9:56 PM 57.9 °F 46.0 °F 65% 30.12 in 10.0 mi Calm Calm - N/A   Clear
10:56 PM 55.9 °F 46.0 °F 69% 30.13 in 10.0 mi Calm Calm - N/A   Clear
11:56 PM 55.9 °F 46.9 °F 72% 30.13 in 10.0 mi Calm Calm - N/A   Clear